Regional Weather Roundup
Issued by NWS

Home | Current Version | Previous Version | Text Only | Print | Product List | Glossary On
Versions: 1 2 3 4 5 6 7 8 9 10 11 12 13 14 15 16 17 18 19 20 21 22 23 24 25 26 27 28 29 30 31 32 33 34 35 36 37 38 39 40 41 42 43 44 45 46 47 48 49 50
000
ASUS44 KFWD 192201
RWRTX
NORTH TEXAS HOURLY WEATHER ROUNDUP
NATIONAL WEATHER SERVICE FORT WORTH TX
400 PM CST FRI DEC 19 2014

NOTE: "FAIR" INDICATES FEW OR NO CLOUDS BELOW 12,000 FEET WITH NO
SIGNIFICANT WEATHER AND/OR OBSTRUCTIONS TO VISIBILITY.

TXZ118-119-192300-
DALLAS/FORT WORTH METROPLEX

CITY           SKY/WX    TMP DP  RH WIND       PRES   REMARKS
DFW AIRPORT    CLOUDY    48  44  86 N9        30.15S
DALLAS LOVE    CLOUDY    49  45  86 N7        30.16R
FTW MEACHAM    CLOUDY    48  44  86 N9        30.15S FOG
DAL-EXECUTIVE  CLOUDY    50  46  86 N7        30.14S FOG
FTW-ALLIANCE   CLOUDY    48  43  82 N8        30.16S
FTW-SPINKS     CLOUDY    48  45  87 N8        30.17R FOG
ARLINGTON      CLOUDY    50  44  80 N10       30.15S
GRAND PRAIRIE  CLOUDY    48  46  93 N7        30.17R
ADDISON        CLOUDY    48  45  87 N7        30.16S FOG
MESQUITE       CLOUDY    48  46  93 N7        30.16R
LANCASTER      CLOUDY    48  45  88 N7        30.17R FOG
$$

TXZ091>094-102>105-117-120-121-131>134-192300-
NORTH CENTRAL TEXAS

CITY           SKY/WX    TMP DP  RH WIND       PRES   REMARKS
SHRMAN/DENISON DRIZZLE   46  45  95 N7        30.18S
BRIDGEPORT     CLOUDY    48  44  86 N7        30.19R
DENTON         CLOUDY    48  43  82 N8        30.17R
MCKINNEY       CLOUDY    48  45  89 N9        30.16S
ROCKWALL       CLOUDY    49  46  90 N6        30.14S
TERRELL        CLOUDY    50  46  86 N8        30.15S
WAXAHACHIE     CLOUDY    48  48 100 N8        30.16R FOG
$$

TXZ083>090-098>101-113>116-127>130-139>142-154-155-192300-
WESTERN NORTH TEXAS

CITY           SKY/WX    TMP DP  RH WIND       PRES   REMARKS
WICHITA FALLS  CLOUDY    46  40  79 NE6       30.18S
WF-KICKAPOO    CLOUDY    45  41  85 N5        30.20S
ABILENE        CLOUDY    47  40  76 N7        30.16S
MINERAL WELLS  CLOUDY    48  42  80 N9        30.15S
STEPHENVILLE   CLOUDY    46  43  89 N6        30.17S
COMANCHE       CLOUDY    48  46  91 N6        30.14F
$$

TXZ143>147-156>162-174-175-192300-
CENTRAL TEXAS

CITY           SKY/WX    TMP DP  RH WIND       PRES   REMARKS
WACO           CLOUDY    49  46  90 N10       30.14R
WACO-TSTC      CLOUDY    50  48  93 N8        30.15R
WACO-MCGREGOR  CLOUDY    48  45  87 N12       30.15R
CORSICANA      CLOUDY    49  46  90 N9        30.15R FOG
MEXIA          CLOUDY    48  47  97 N10       30.12R FOG
HEARNE         CLOUDY    52  49  90 NW13      30.11R
TEMPLE         CLOUDY    48  43  81 N15       30.12R
KILLEEN        CLOUDY    48  47  94 N13       30.13R
KILLEEN-SKYLRK CLOUDY    48  43  81 N9        30.10R
FORT HOOD      CLOUDY    48  47  95 N14       30.12R
HAMILTON       CLOUDY    47  47 100 N10       30.14F
$$

TXZ095>097-106>112-122>126-135>138-148>153-164>167-192300-
EAST TEXAS

CITY           SKY/WX    TMP DP  RH WIND       PRES   REMARKS
PARIS          CLOUDY    46  43  87 NE6       30.17S
SULPHUR SPRNGS CLOUDY    47  45  90 NE7       30.18R
MINEOLA        CLOUDY    48  46  93 N3        30.16R FOG
TYLER          CLOUDY    48  46  93 N8        30.13R FOG
LONGVIEW       CLOUDY    50  46  86 NE6       30.12R
PALESTINE      CLOUDY    51  49  93 N9        30.12R
JACKSONVILLE   CLOUDY    49  48  95 NE7       30.11R
NACOGDOCHES    CLOUDY    52  46  82 NE6       30.10R
LUFKIN         CLOUDY    54  49  83 N7        30.07S
$$

SUPPLEMENTAL OBSERVATIONS (CENTRAL)

CITY           SKY/WX    TMP DP  RH WIND       PRES   REMARKS
$$

SUPPLEMENTAL OBSERVATIONS (WEST)

CITY           SKY/WX    TMP DP  RH WIND       PRES   REMARKS
$$

SUPPLEMENTAL OBSERVATIONS (EAST)

CITY           SKY/WX    TMP DP  RH WIND       PRES   REMARKS
$$

SUPPLEMENTAL OBSERVATIONS ARE A COLLECTION OF AUTOMATED INSTRUMENTS
THAT ARE MAINTAINED BY A VARIETY OF FEDERAL AND STATE AGENCIES.
CERTAIN ELEMENTS...SUCH AS HUMIDITY VALUES AND SUSTAINED WIND
SPEEDS...MAY BE APPROXIMATED.




USA.gov is the U.S. government's official web portal to all federal, state and local government web resources and services.